Regional Weather Roundup
Issued by NWS Sioux Falls, SD

Home | Current Version | Previous Version | Graphics & Text | Print | Product List | Glossary On
Versions: 1 2 3 4 5 6 7 8 9 10 11 12 13 14 15 16 17 18 19 20 21 22 23 24 25 26 27 28 29 30 31 32 33 34 35 36 37 38 39 40 41 42 43 44 45 46 47 48 49 50
000
ASUS43 KFSD 300002
RWRFSD

WEATHER ROUNDUP FOR SE SOUTH DAKOTA/SW MINNESOTA/NW IOWA
NATIONAL WEATHER SERVICE SIOUX FALLS SD
700 PM CDT THU SEP 29 2016

NOTE: "FAIR" INDICATES FEW OR NO CLOUDS BELOW 12,000 FEET WITH NO
SIGNIFICANT WEATHER AND OR OBSTRUCTIONS TO VISIBILITY.


SDZ038>040-050-052>070-300100-
SOUTHEAST SOUTH DAKOTA

CITY           SKY/WX    TMP DP  RH WIND       PRES   REMARKS
CHAMBERLAIN    CLEAR     66  48  53 SE10      30.29F
6HR MIN TEMP:  66; 6HR MAX TEMP:  72;

HURON          CLEAR     65  46  50 SE7       30.31F
6HR MIN TEMP:  63; 6HR MAX TEMP:  70;

MADISON        FAIR      61  46  59 SE6       30.36S
MITCHELL       CLEAR     65  46  50 SE8       30.33F
6HR MIN TEMP:  65; 6HR MAX TEMP:  70;

SIOUX FALLS    CLEAR     65  48  54 SE7       30.34F
6HR MIN TEMP:  63; 6HR MAX TEMP:  69;

WINNER         FAIR      67  44  43 SE12      30.29R
YANKTON        CLEAR     64  46  52 SE5       30.32S
$$

MNZ071-072-080-081-089-090-097-098-300100-
SOUTHWEST MINNESOTA

CITY           SKY/WX    TMP DP  RH WIND       PRES   REMARKS
FAIRMONT       CLEAR     62  48  60 NE6       30.38S
JACKSON        CLEAR     61  46  59 NE5       30.38S
LUVERNE        CLEAR     63  46  55 E5        30.36S
MARSHALL       CLEAR     63  49  60 E5        30.38F
6HR MIN TEMP:  61; 6HR MAX TEMP:  66;

MONTEVIDEO     CLEAR     61  48  63 SE6       30.40S
PIPESTONE      CLEAR     64  46  52 E5        30.36F
REDWOOD FALLS  CLEAR     63  47  55 E5        30.38F
TRACY          CLEAR     62  50  65 E3        30.38F
WINDOM         CLEAR     63  46  55 NE5       30.38S
WORTHINGTON    CLEAR     61  48  62 NE7       30.38S
$$

IAZ001>003-012>014-020>022-031-032-NEZ013-014-SDZ071-300100-
NORTHWEST IOWA

CITY           SKY/WX    TMP DP  RH WIND       PRES   REMARKS
CHEROKEE       CLEAR     63  48  59 CALM      30.35S
DENISON        CLEAR     64  46  52 NE5       30.32S
ESTHERVILLE    CLEAR     59  48  67 NE6       30.37S
LE MARS        CLEAR     66  46  48 E3        30.35S
SHELDON        CLEAR     63  48  59 E6        30.34F
SIOUX CITY     CLEAR     66  49  54 E6        30.33F
6HR MIN TEMP:  66; 6HR MAX TEMP:  73;

SPENCER        CLEAR     61  48  62 E7        30.37S
6HR MIN TEMP:  61; 6HR MAX TEMP:  69;

STORM LAKE     CLEAR     63  46  55 NE6       30.36S
$$

ABBREVIATIONS USED IN REMARKS
   TC - TEMPERATURE IN CELSIUS
  WCI - WIND CHILL INDEX
   HX - HEAT INDEX
  VSB - VISIBILITY





USA.gov is the U.S. government's official web portal to all federal, state and local government web resources and services.